Andrews, NC

2:24 PM EDT on August 25, 2016 (GMT -0400)
Andrews

Weather History for KRHP - June, 2014

Change the Weather History Date:

Tuesday, June 24, 2014

  Actual Average (KTYS) Record (KTYS)
Temperature  
Mean Temperature 72 °F 77 °F  
Max Temperature 79 °F 87 °F 102 °F (1988)
Min Temperature 65 °F 67 °F 51 °F (1972)
Degree Days  
Heating Degree Days 0 0  
Month to date heating degree days 0  
Since 1 June heating degree days 0  
Since 1 July heating degree days 3633  
Cooling Degree Days 7 12  
Month to date cooling degree days 230  
Year to date cooling degree days 392  
Since 1 June cooling degree days 230  
Growing Degree Days 22 (Base 50)    
Moisture  
Dew Point 67 °F    
Average Humidity 87    
Maximum Humidity 98    
Minimum Humidity 69    
Precipitation  
Precipitation 0.43 in 0.12 in 2.43 in (1984)
Month to date precipitation 2.96  
Year to date precipitation 24.40  
Snow  
Snow 0.00 in 0.00 in - ()
Month to date snowfall 0.0  
Since 1 June snowfall 0.0  
Since 1 July snowfall 6.5  
Snow Depth -    
Sea Level Pressure  
Sea Level Pressure 30.10 in    
Wind  
Wind Speed 2 mph (West)    
Max Wind Speed 8 mph    
Max Gust Speed 17 mph    
Visibility 9 miles    
Events Rain    
T = Trace of Precipitation, MM = Missing Value Source: NWS Daily Summary

Daily Weather History Graph

Daily Weather History Graph

Search for Another Location

Airport or City:

Trip Planner

Search our weather history database for the weather conditions in past years. The results will help you decide how hot, cold, wet, or windy it might be!

Date:

Astronomy

Jun. 24, 2014 Rise Set
Actual Time 6:22 AM EDT 8:53 PM EDT
Civil Twilight 5:52 AM EDT 9:23 PM EDT
Nautical Twilight 5:15 AM EDT 10:00 PM EDT
Astronomical Twilight 4:34 AM EDT 10:41 PM EDT
Moon 4:23 AM EDT (6/24) 6:35 PM EDT (6/24)
Length of Visible Light 15h 31m
Length of Day
14h 31m
Waning Crescent, 7% of the Moon is Illuminated
Jun 24
Waning Crescent
Jun 27
New
Jul 5
First Quarter
Jul 12
Full
Jul 18
Last Quarter

Hourly Weather History & Observations

Time (EDT) Temp. Dew Point Humidity Pressure Visibility Wind Dir Wind Speed Gust Speed Precip Events Conditions
12:15 AM 68.7 °F 65.5 °F 89% 30.11 in 10.0 mi West 3.5 mph - N/A   Mostly Cloudy
12:35 AM 68.2 °F 65.8 °F 92% 30.11 in 10.0 mi Calm Calm - N/A   Mostly Cloudy
12:50 AM 68.0 °F 66.0 °F 93% 30.12 in 10.0 mi North 3.5 mph - N/A   Mostly Cloudy
1:15 AM 68.0 °F 66.2 °F 94% 30.11 in 10.0 mi Calm Calm - N/A   Overcast
1:35 AM 68.0 °F 66.7 °F 96% 30.11 in 7.0 mi Calm Calm - N/A   Overcast
1:55 AM 67.5 °F 65.7 °F 94% 30.10 in 10.0 mi Calm Calm - N/A   Mostly Cloudy
2:15 AM 67.1 °F 66.2 °F 97% 30.10 in 7.0 mi Calm Calm - N/A   Mostly Cloudy
2:35 AM 67.1 °F 65.5 °F 95% 30.10 in 7.0 mi Calm Calm - N/A   Mostly Cloudy
2:55 AM 66.7 °F 65.7 °F 96% 30.10 in 7.0 mi Calm Calm - N/A   Mostly Cloudy
3:15 AM 66.2 °F 65.5 °F 98% 30.10 in 7.0 mi Calm Calm - N/A   Overcast
3:35 AM 66.4 °F 65.5 °F 97% 30.10 in 7.0 mi Calm Calm - N/A   Overcast
4:15 AM 65.8 °F 64.9 °F 97% 30.10 in 7.0 mi Calm Calm - N/A   Overcast
4:35 AM 66.2 °F 65.3 °F 97% 30.10 in 7.0 mi Calm Calm - N/A   Overcast
4:55 AM 67.1 °F 65.5 °F 95% 30.11 in 10.0 mi Calm Calm - N/A   Overcast
5:15 AM 66.7 °F 65.7 °F 96% 30.11 in 7.0 mi Calm Calm - N/A   Overcast
5:35 AM 66.4 °F 64.8 °F 95% 30.11 in 7.0 mi Calm Calm - N/A   Mostly Cloudy
5:55 AM 66.6 °F 65.5 °F 96% 30.11 in 7.0 mi Calm Calm - N/A   Scattered Clouds
6:15 AM 66.2 °F 64.9 °F 96% 30.11 in 7.0 mi Calm Calm - N/A   Mostly Cloudy
6:35 AM 65.5 °F 64.4 °F 96% 30.11 in 7.0 mi Calm Calm - N/A   Clear
6:55 AM 65.3 °F 64.8 °F 98% 30.11 in 4.0 mi Calm Calm - N/A   Clear
7:15 AM 65.8 °F 64.8 °F 96% 30.12 in 7.0 mi Calm Calm - N/A   Clear
7:35 AM 66.2 °F 65.1 °F 96% 30.12 in 7.0 mi Calm Calm - N/A   Scattered Clouds
7:55 AM 67.1 °F 65.5 °F 95% 30.13 in 7.0 mi Calm Calm - N/A   Clear
8:15 AM 68.0 °F 66.0 °F 93% 30.14 in 7.0 mi WSW 3.5 mph - N/A   Scattered Clouds
8:35 AM 68.0 °F 66.0 °F 93% 30.14 in 7.0 mi Calm Calm - N/A   Overcast
8:55 AM 69.3 °F 66.0 °F 89% 30.14 in 7.0 mi Calm Calm - N/A   Mostly Cloudy
9:15 AM 70.9 °F 66.0 °F 85% 30.14 in 10.0 mi Calm Calm - N/A   Mostly Cloudy
9:35 AM 72.0 °F 66.2 °F 82% 30.14 in 10.0 mi Calm Calm - N/A   Mostly Cloudy
9:55 AM 74.7 °F 67.5 °F 78% 30.13 in 10.0 mi Calm Calm - N/A   Mostly Cloudy
10:15 AM 76.1 °F 67.1 °F 74% 30.13 in 10.0 mi Calm Calm - N/A   Mostly Cloudy
10:35 AM 74.3 °F 66.4 °F 76% 30.12 in 10.0 mi WNW 4.6 mph - N/A   Overcast
11:15 AM 77.2 °F 67.1 °F 71% 30.12 in 10.0 mi West 3.5 mph - N/A   Mostly Cloudy
11:30 AM 77.0 °F 67.1 °F 71% 30.12 in 10.0 mi South 3.5 mph - N/A   Overcast
12:15 PM 77.4 °F 66.4 °F 69% 30.11 in 10.0 mi South 3.5 mph - N/A   Overcast
12:35 PM 77.2 °F 67.6 °F 72% 30.11 in 10.0 mi NW 5.8 mph - N/A   Overcast
12:55 PM 69.8 °F 67.6 °F 93% 30.13 in 1.8 mi NNW 8.1 mph 17.3 mph 0.22 in Rain Heavy Rain
1:15 PM 69.1 °F 67.6 °F 95% 30.15 in 3.0 mi SSW 3.5 mph - 0.12 in Rain Rain
1:35 PM 69.6 °F 68.0 °F 95% 30.14 in 5.0 mi West 4.6 mph - 0.19 in Rain Light Rain
1:55 PM 70.7 °F 68.2 °F 92% 30.13 in 10.0 mi West 3.5 mph - 0.20 in Rain Light Rain
2:15 PM 71.4 °F 68.0 °F 89% 30.12 in 10.0 mi West 4.6 mph - 0.01 in Rain Light Rain
2:35 PM 73.2 °F 68.2 °F 84% 30.11 in 10.0 mi West 4.6 mph - 0.01 in   Scattered Clouds
2:55 PM 73.6 °F 68.5 °F 84% 30.11 in 10.0 mi West 4.6 mph - 0.01 in   Scattered Clouds
3:15 PM 75.0 °F 68.9 °F 81% 30.10 in 10.0 mi West 4.6 mph - N/A   Scattered Clouds
3:35 PM 76.8 °F 69.6 °F 78% 30.09 in 10.0 mi WNW 3.5 mph - N/A   Scattered Clouds
3:55 PM 76.8 °F 68.7 °F 76% 30.08 in 10.0 mi West 5.8 mph - N/A   Mostly Cloudy
4:15 PM 78.3 °F 68.9 °F 73% 30.08 in 10.0 mi West 5.8 mph - N/A   Scattered Clouds
4:35 PM 78.1 °F 68.9 °F 73% 30.07 in 10.0 mi West 3.5 mph - N/A   Scattered Clouds
4:55 PM 79.9 °F 70.5 °F 73% 30.07 in 10.0 mi West 5.8 mph - N/A   Mostly Cloudy
5:10 PM 79.5 °F 69.1 °F 70% 30.06 in 10.0 mi SW 4.6 mph - N/A   Mostly Cloudy
5:35 PM 78.6 °F 68.0 °F 70% 30.06 in 10.0 mi SSW 3.5 mph - N/A   Mostly Cloudy
5:55 PM 79.0 °F 68.9 °F 71% 30.05 in 10.0 mi West 3.5 mph - N/A   Scattered Clouds
6:15 PM 78.1 °F 68.0 °F 71% 30.04 in 10.0 mi WSW 4.6 mph - N/A   Mostly Cloudy
6:35 PM 78.6 °F 69.3 °F 73% 30.03 in 10.0 mi WSW 4.6 mph - N/A   Mostly Cloudy
6:55 PM 77.9 °F 69.3 °F 75% 30.04 in 10.0 mi West 4.6 mph - N/A   Scattered Clouds
7:15 PM 77.0 °F 68.4 °F 75% 30.05 in 10.0 mi SW 4.6 mph - N/A   Mostly Cloudy
7:35 PM 76.3 °F 68.4 °F 76% 30.06 in 10.0 mi Calm Calm - N/A   Overcast
7:55 PM 73.9 °F 70.2 °F 88% 30.06 in 10.0 mi Calm Calm - N/A   Scattered Clouds
8:15 PM 73.0 °F 69.4 °F 88% 30.07 in 10.0 mi Calm Calm - N/A   Mostly Cloudy
8:35 PM 72.7 °F 69.6 °F 90% 30.07 in 10.0 mi Calm Calm - N/A   Mostly Cloudy
8:55 PM 72.3 °F 69.8 °F 92% 30.07 in 10.0 mi Calm Calm - N/A   Mostly Cloudy
9:15 PM 71.2 °F 69.8 °F 95% 30.06 in 10.0 mi Calm Calm - N/A Rain Light Rain
9:35 PM 71.1 °F 69.6 °F 95% 30.06 in 10.0 mi Calm Calm - N/A   Mostly Cloudy
9:55 PM 70.5 °F 68.9 °F 95% 30.06 in 10.0 mi Calm Calm - N/A   Clear
10:15 PM 69.3 °F 68.2 °F 96% 30.07 in 7.0 mi Calm Calm - N/A   Scattered Clouds
10:35 PM 69.1 °F 67.6 °F 95% 30.08 in 10.0 mi Calm Calm - N/A   Scattered Clouds
10:55 PM 68.5 °F 67.1 °F 95% 30.08 in 10.0 mi Calm Calm - N/A   Scattered Clouds
11:10 PM 67.5 °F 66.7 °F 98% 30.08 in 5.0 mi Calm Calm - N/A   Scattered Clouds
11:35 PM 66.9 °F 66.2 °F 98% 30.08 in 5.0 mi Calm Calm - N/A   Scattered Clouds
11:55 PM 67.5 °F 66.9 °F 98% 30.08 in 7.0 mi Calm Calm - N/A   Overcast